Time,TemperatureF,DewpointF,PressureIn,WindDirection,WindDirectionDegrees,WindSpeedMPH,WindSpeedGustMPH,Humidity,HourlyPrecipIn,Conditions,Clouds,dailyrainin,SolarRadiationWatts/m^2,SoftwareType,DateUTC
2013-03-30 00:02:00,43.0,33.0,-100.00,SE,129,2.0,4.0,67,0.00,,,0.00,0.000000,,2013-03-30 07:02:00,
2013-03-30 00:12:00,43.0,33.0,-100.00,SE,129,2.0,4.0,67,0.00,,,0.00,0.000000,,2013-03-30 07:12:00,
2013-03-30 00:22:00,43.0,33.0,-100.00,SE,129,2.0,4.0,67,0.00,,,0.00,0.000000,,2013-03-30 07:22:00,
2013-03-30 00:52:00,42.0,31.0,-100.00,SE,132,4.0,5.0,64,0.00,,,0.00,0.000000,,2013-03-30 07:52:00,
2013-03-30 01:01:00,42.0,31.0,-100.00,SE,132,4.0,5.0,64,0.00,,,0.00,0.000000,,2013-03-30 08:01:00,
2013-03-30 01:12:00,42.0,31.0,-100.00,SE,132,4.0,5.0,64,0.00,,,0.00,0.000000,,2013-03-30 08:12:00,
2013-03-30 01:21:00,42.0,31.0,-100.00,SE,132,4.0,5.0,64,0.00,,,0.00,0.000000,,2013-03-30 08:21:00,
2013-03-30 01:53:00,42.0,29.0,-100.00,SE,134,2.0,4.0,60,0.00,,,0.00,0.000000,,2013-03-30 08:53:00,
2013-03-30 02:02:00,42.0,29.0,-100.00,SE,134,2.0,4.0,60,0.00,,,0.00,0.000000,,2013-03-30 09:02:00,
2013-03-30 02:12:00,42.0,29.0,-100.00,SE,134,2.0,4.0,60,0.00,,,0.00,0.000000,,2013-03-30 09:12:00,
2013-03-30 02:22:00,42.0,29.0,-100.00,SE,134,2.0,4.0,60,0.00,,,0.00,0.000000,,2013-03-30 09:22:00,
2013-03-30 02:53:00,42.0,27.0,-100.00,SSE,154,1.0,5.0,56,0.00,,,0.00,0.000000,,2013-03-30 09:53:00,
2013-03-30 03:02:00,42.0,27.0,-100.00,SSE,154,1.0,5.0,56,0.00,,,0.00,0.000000,,2013-03-30 10:02:00,
2013-03-30 03:12:00,42.0,27.0,-100.00,SSE,154,1.0,5.0,56,0.00,,,0.00,0.000000,,2013-03-30 10:12:00,
2013-03-30 03:22:00,42.0,27.0,-100.00,SSE,154,1.0,5.0,56,0.00,,,0.00,0.000000,,2013-03-30 10:22:00,
2013-03-30 03:52:00,43.0,27.0,-100.00,SE,141,3.0,5.0,53,0.00,,,0.00,0.000000,,2013-03-30 10:52:00,
2013-03-30 04:03:00,43.0,27.0,-100.00,SE,141,3.0,5.0,53,0.00,,,0.00,0.000000,,2013-03-30 11:03:00,
2013-03-30 04:12:00,43.0,27.0,-100.00,SE,141,3.0,5.0,53,0.00,,,0.00,0.000000,,2013-03-30 11:12:00,
2013-03-30 04:22:00,43.0,27.0,-100.00,SE,141,3.0,5.0,53,0.00,,,0.00,0.000000,,2013-03-30 11:22:00,
2013-03-30 04:53:00,42.0,25.0,-100.00,SE,137,2.0,5.0,51,0.00,,,0.00,0.000000,,2013-03-30 11:53:00,
2013-03-30 05:02:00,42.0,25.0,-100.00,SE,137,2.0,5.0,51,0.00,,,0.00,0.000000,,2013-03-30 12:02:00,
2013-03-30 05:12:00,42.0,25.0,-100.00,SE,137,2.0,5.0,51,0.00,,,0.00,0.000000,,2013-03-30 12:12:00,
2013-03-30 05:22:00,42.0,25.0,-100.00,SE,137,2.0,5.0,51,0.00,,,0.00,0.000000,,2013-03-30 12:22:00,
2013-03-30 05:53:00,44.0,29.0,-100.00,ESE,106,2.0,6.0,56,0.00,,,-99.99,0.000000,,2013-03-30 12:53:00,
2013-03-30 06:02:00,44.0,29.0,-100.00,ESE,106,2.0,6.0,56,0.00,,,-99.99,0.000000,,2013-03-30 13:02:00,
2013-03-30 06:12:00,44.0,29.0,-100.00,ESE,106,2.0,6.0,56,0.00,,,-99.99,0.000000,,2013-03-30 13:12:00,
2013-03-30 06:22:00,44.0,29.0,-100.00,ESE,106,2.0,6.0,56,0.00,,,-99.99,0.000000,,2013-03-30 13:22:00,
2013-03-30 06:52:00,43.0,30.0,-100.00,SE,138,1.0,10.0,61,0.00,,,0.00,0.000000,,2013-03-30 13:52:00,
2013-03-30 07:11:00,43.0,30.0,-100.00,SE,138,1.0,10.0,61,0.00,,,0.00,0.000000,,2013-03-30 14:11:00,
2013-03-30 07:22:00,43.0,30.0,-100.00,SE,138,1.0,10.0,61,0.00,,,0.00,0.000000,,2013-03-30 14:22:00,
2013-03-30 07:52:00,44.0,32.0,-100.00,ENE,77,4.0,10.0,62,0.00,,,0.00,5.000000,,2013-03-30 14:52:00,
2013-03-30 08:12:00,44.0,32.0,-100.00,ENE,77,4.0,10.0,62,0.00,,,0.00,5.000000,,2013-03-30 15:12:00,
2013-03-30 08:22:00,44.0,32.0,-100.00,ENE,77,4.0,10.0,62,0.00,,,0.00,5.000000,,2013-03-30 15:22:00,
2013-03-30 08:53:00,48.0,34.0,-100.00,ENE,68,3.0,7.0,59,0.00,,,0.00,65.000000,,2013-03-30 15:53:00,
2013-03-30 09:03:00,48.0,34.0,-100.00,ENE,68,3.0,7.0,59,0.00,,,0.00,65.000000,,2013-03-30 16:03:00,
2013-03-30 09:12:00,48.0,34.0,-100.00,ENE,68,3.0,7.0,59,0.00,,,0.00,65.000000,,2013-03-30 16:12:00,
2013-03-30 09:22:00,48.0,34.0,-100.00,ENE,68,3.0,7.0,59,0.00,,,0.00,65.000000,,2013-03-30 16:22:00,
2013-03-30 09:52:00,52.0,34.0,-100.00,North,2,2.0,10.0,50,0.00,,,0.00,260.000000,,2013-03-30 16:52:00,
2013-03-30 10:02:00,52.0,34.0,-100.00,North,2,2.0,10.0,50,0.00,,,0.00,260.000000,,2013-03-30 17:02:00,
2013-03-30 10:13:00,52.0,34.0,-100.00,North,2,2.0,10.0,50,0.00,,,0.00,260.000000,,2013-03-30 17:13:00,
2013-03-30 10:22:00,52.0,34.0,-100.00,North,2,2.0,10.0,50,0.00,,,0.00,260.000000,,2013-03-30 17:22:00,
2013-03-30 10:52:00,55.0,36.0,-100.00,NNW,327,2.0,5.0,48,0.00,,,0.00,449.000000,,2013-03-30 17:52:00,
2013-03-30 11:12:00,55.0,36.0,-100.00,NNW,327,2.0,5.0,48,0.00,,,0.00,449.000000,,2013-03-30 18:12:00,
2013-03-30 11:22:00,55.0,36.0,-100.00,NNW,327,2.0,5.0,48,0.00,,,0.00,449.000000,,2013-03-30 18:22:00,
2013-03-30 11:53:00,58.0,34.0,-100.00,North,356,3.0,6.0,40,0.00,,,0.00,589.000000,,2013-03-30 18:53:00,
2013-03-30 12:02:00,58.0,34.0,-100.00,North,356,3.0,6.0,40,0.00,,,0.00,589.000000,,2013-03-30 19:02:00,
2013-03-30 12:12:00,58.0,34.0,-100.00,North,356,3.0,6.0,40,0.00,,,0.00,589.000000,,2013-03-30 19:12:00,
2013-03-30 12:22:00,58.0,34.0,-100.00,North,356,3.0,6.0,40,0.00,,,0.00,589.000000,,2013-03-30 19:22:00,
2013-03-30 12:53:00,60.0,32.0,-100.00,WNW,288,2.0,8.0,34,0.00,,,0.00,687.000000,,2013-03-30 19:53:00,
2013-03-30 13:02:00,60.0,32.0,-100.00,WNW,288,2.0,8.0,34,0.00,,,0.00,687.000000,,2013-03-30 20:02:00,
2013-03-30 13:12:00,60.0,32.0,-100.00,WNW,288,2.0,8.0,34,0.00,,,0.00,687.000000,,2013-03-30 20:12:00,
2013-03-30 13:21:00,60.0,32.0,-100.00,WNW,288,2.0,8.0,34,0.00,,,0.00,687.000000,,2013-03-30 20:21:00,
2013-03-30 13:53:00,60.0,34.0,-100.00,West,279,5.0,9.0,38,0.00,,,0.00,739.000000,,2013-03-30 20:53:00,
2013-03-30 14:02:00,60.0,34.0,-100.00,West,279,5.0,9.0,38,0.00,,,0.00,739.000000,,2013-03-30 21:02:00,
2013-03-30 14:12:00,60.0,34.0,-100.00,West,279,5.0,9.0,38,0.00,,,0.00,739.000000,,2013-03-30 21:12:00,
2013-03-30 14:22:00,60.0,34.0,-100.00,West,279,5.0,9.0,38,0.00,,,0.00,739.000000,,2013-03-30 21:22:00,
2013-03-30 14:53:00,62.0,35.0,-100.00,WNW,301,4.0,10.0,36,0.00,,,0.00,736.000000,,2013-03-30 21:53:00,
2013-03-30 15:02:00,62.0,35.0,-100.00,WNW,301,4.0,10.0,36,0.00,,,0.00,736.000000,,2013-03-30 22:02:00,
2013-03-30 15:12:00,62.0,35.0,-100.00,WNW,301,4.0,10.0,36,0.00,,,0.00,736.000000,,2013-03-30 22:12:00,
2013-03-30 15:23:00,62.0,35.0,-100.00,WNW,301,4.0,10.0,36,0.00,,,0.00,736.000000,,2013-03-30 22:23:00,
2013-03-30 15:53:00,62.0,35.0,-100.00,WNW,293,5.0,10.0,37,0.00,,,0.00,677.000000,,2013-03-30 22:53:00,
2013-03-30 16:02:00,62.0,35.0,-100.00,WNW,293,5.0,10.0,37,0.00,,,0.00,677.000000,,2013-03-30 23:02:00,
2013-03-30 16:12:00,62.0,35.0,-100.00,WNW,293,5.0,10.0,37,0.00,,,0.00,677.000000,,2013-03-30 23:12:00,
2013-03-30 16:22:00,62.0,35.0,-100.00,WNW,293,5.0,10.0,37,0.00,,,0.00,677.000000,,2013-03-30 23:22:00,
2013-03-30 16:53:00,61.0,36.0,-100.00,West,280,5.0,10.0,39,0.00,,,0.00,580.000000,,2013-03-30 23:53:00,
2013-03-30 17:02:00,61.0,36.0,-100.00,West,280,5.0,10.0,39,0.00,,,0.00,580.000000,,2013-03-31 00:02:00,
2013-03-30 17:12:00,61.0,36.0,-100.00,West,280,5.0,10.0,39,0.00,,,0.00,580.000000,,2013-03-31 00:12:00,
2013-03-30 17:22:00,61.0,36.0,-100.00,West,280,5.0,10.0,39,0.00,,,0.00,580.000000,,2013-03-31 00:22:00,
2013-03-30 17:53:00,60.0,36.0,-100.00,West,280,5.0,9.0,40,0.00,,,0.00,440.000000,,2013-03-31 00:53:00,
2013-03-30 18:02:00,60.0,36.0,-100.00,West,280,5.0,9.0,40,0.00,,,0.00,440.000000,,2013-03-31 01:02:00,
2013-03-30 18:12:00,60.0,36.0,-100.00,West,280,5.0,9.0,40,0.00,,,0.00,440.000000,,2013-03-31 01:12:00,
2013-03-30 18:22:00,60.0,36.0,-100.00,West,280,5.0,9.0,40,0.00,,,0.00,440.000000,,2013-03-31 01:22:00,
2013-03-30 18:53:00,58.0,36.0,-100.00,WNW,287,5.0,9.0,44,0.00,,,0.00,273.000000,,2013-03-31 01:53:00,
2013-03-30 19:02:00,58.0,36.0,-100.00,WNW,287,5.0,9.0,44,0.00,,,0.00,273.000000,,2013-03-31 02:02:00,
2013-03-30 19:12:00,58.0,36.0,-100.00,WNW,287,5.0,9.0,44,0.00,,,0.00,273.000000,,2013-03-31 02:12:00,
2013-03-30 19:22:00,58.0,36.0,-100.00,WNW,287,5.0,9.0,44,0.00,,,0.00,273.000000,,2013-03-31 02:22:00,
2013-03-30 19:52:00,53.0,36.0,-100.00,WNW,296,4.0,8.0,52,0.00,,,0.00,104.000000,,2013-03-31 02:52:00,
2013-03-30 20:02:00,53.0,36.0,-100.00,WNW,296,4.0,8.0,52,0.00,,,0.00,104.000000,,2013-03-31 03:02:00,
2013-03-30 20:12:00,53.0,36.0,-100.00,WNW,296,4.0,8.0,52,0.00,,,0.00,104.000000,,2013-03-31 03:12:00,
2013-03-30 20:22:00,53.0,36.0,-100.00,WNW,296,4.0,8.0,52,0.00,,,0.00,104.000000,,2013-03-31 03:22:00,
2013-03-30 20:54:00,50.0,38.0,-100.00,SE,124,2.0,4.0,62,0.00,,,0.00,5.000000,,2013-03-31 03:54:00,
2013-03-30 21:02:00,50.0,-99.9,-100.00,SE,124,2.0,4.0,62,0.00,,,0.00,5.000000,,2013-03-31 04:02:00,
2013-03-30 21:12:00,50.0,38.0,-100.00,SE,124,2.0,4.0,62,0.00,,,0.00,5.000000,,2013-03-31 04:12:00,
2013-03-30 21:22:00,50.0,38.0,-100.00,SE,124,2.0,4.0,62,0.00,,,0.00,5.000000,,2013-03-31 04:22:00,
2013-03-30 21:52:00,47.0,37.0,-100.00,ESE,113,1.0,4.0,68,0.00,,,0.00,0.000000,,2013-03-31 04:52:00,
2013-03-30 22:02:00,47.0,37.0,-100.00,ESE,113,1.0,4.0,68,0.00,,,0.00,0.000000,,2013-03-31 05:02:00,
2013-03-30 22:12:00,47.0,37.0,-100.00,ESE,113,1.0,4.0,68,0.00,,,0.00,0.000000,,2013-03-31 05:12:00,
2013-03-30 22:22:00,47.0,37.0,-100.00,ESE,113,1.0,4.0,68,0.00,,,0.00,0.000000,,2013-03-31 05:22:00,
2013-03-30 22:53:00,46.0,37.0,-100.00,SSE,147,2.0,4.0,71,0.00,,,0.00,0.000000,,2013-03-31 05:53:00,
2013-03-30 23:01:00,46.0,37.0,-100.00,SSE,147,2.0,4.0,71,0.00,,,0.00,0.000000,,2013-03-31 06:01:00,
2013-03-30 23:11:00,46.0,37.0,-100.00,SSE,147,2.0,4.0,71,0.00,,,0.00,0.000000,,2013-03-31 06:11:00,
2013-03-30 23:21:00,46.0,37.0,-100.00,SSE,147,2.0,4.0,71,0.00,,,0.00,0.000000,,2013-03-31 06:21:00,
2013-03-30 23:52:00,46.0,37.0,-100.00,SSE,153,2.0,3.0,70,0.00,,,0.00,0.000000,,2013-03-31 06:52:00,